This demonstration page uses our WeatherBlox Daily Observations layout. Learn more.

Left ArrowRight Arrow

38.80484, -77.04692

Hourly Observations for February 19, 2016

Temp ( °F °C ) Dew Point ( °F °C ) Humidity (%) Winds ( mph kmh ) Pressure ( in mb ) Visibility ( mi km ) Precip ( " mm )
12:52 am 00:52 Clear 29 -1.7 12 -11.1 49 49 NNW 6 9 30.58 1036 10 16 0.00 0.00
1:52 am 01:52 Clear 30 -1.1 13 -10.6 49 49 ENE 3 6 30.57 1035 10 16 0.00 0.00
2:52 am 02:52 Clear 30 -1.1 14 -10 51 51 ENE 5 7 30.57 1035 10 16 0.00 0.00
3:52 am 03:52 Clear 29 -1.7 15 -9.4 56 56 ENE 3 6 30.57 1035 10 16 0.00 0.00
4:52 am 04:52 Clear 28 -2.2 14 -10 56 56 ENE 3 6 30.58 1035 10 16 0.00 0.00
5:52 am 05:52 Clear 28 -2.2 12 -11.1 51 51 Calm 30.58 1036 10 16 0.00 0.00
6:30 am 06:30 Mostly Cloudy 27 -3 14 -10 59 59 Calm 30.59 1036 10 16 0.00 0.00
6:52 am 06:52 Mostly Cloudy 28 -2.2 12 -11.1 51 51 Calm 30.60 1036 10 16 0.00 0.00
7:52 am 07:52 Mostly Cloudy 29 -1.7 13 -10.6 51 51 E 5 7 30.60 1036 10 16 0.00 0.00
8:52 am 08:52 Cloudy 31 -0.6 15 -9.4 52 52 SE 6 9 30.60 1036 10 16 0.00 0.00
9:52 am 09:52 Cloudy 32 0 15 -9.4 50 50 SSW 7 11 30.62 1037 10 16 0.00 0.00
10:52 am 10:52 Cloudy 32 0 16 -8.9 52 52 S 8 13 30.58 1036 10 16 0.00 0.00
11:52 am 11:52 Cloudy 34 1.1 16 -8.9 48 48 S 10 17 30.55 1035 10 16 0.00 0.00
12:52 pm 12:52 Cloudy 37 2.8 16 -8.9 42 42 S 9 15 30.49 1033 10 16 0.00 0.00
1:52 pm 13:52 Cloudy 39 3.9 15 -9.4 38 38 S 12 19 30.43 1031 10 16 0.00 0.00
2:52 pm 14:52 Cloudy 40 4.4 19 -7.2 43 43 S 10 17 30.39 1029 10 16 0.00 0.00
3:52 pm 15:52 Cloudy 41 5 16 -8.9 36 36 S 16 26 30.33 1027 10 16 0.00 0.00
4:52 pm 16:52 Cloudy 40 4.4 17 -8.3 40 40 SSE 14 22 30.28 1025 10 16 0.00 0.00
5:52 pm 17:52 Cloudy 39 3.9 18 -7.8 43 43 SSE 9 15 30.26 1025 10 16 0.00 0.00
6:52 pm 18:52 Cloudy 38 3.3 21 -6.1 51 51 SSE 9 15 30.25 1024 10 16 0.00 0.00
7:52 pm 19:52 Cloudy 38 3.3 24 -4.4 57 57 SSE 8 13 30.24 1024 10 16 0.00 0.00
8:52 pm 20:52 Cloudy 39 3.9 24 -4.4 55 55 S 13 20 30.22 1024 10 16 0.00 0.00
9:52 pm 21:52 Cloudy 40 4.4 26 -3.3 58 58 S 13 20 30.19 1022 10 16 0.00 0.00
10:52 pm 22:52 Cloudy 40 4.4 27 -2.8 60 60 S 14 22 30.15 1021 10 16 0.00 0.00
11:52 pm 23:52 Mostly Cloudy 40 4.4 27 -2.8 60 60 S 15 24 30.12 1020 10 16 0.00 0.00

Powered by AerisWeather